Home   Weather   Jackson   Past weeks

Flag for USA Past Weather in Jackson, Wyoming, USA — Yesterday and Last 2 Weeks

Now
25 °F

Sunny.


Feels Like: 20 °F
Forecast: 27 / 47 °F
Wind: 3 mph from Northwest

Location: Jackson Hole

Current Time: Apr 30, 2017 at 6:54:12 am

Latest Report: Apr 30, 2017 at 6:35 am


Visibility: 10 mi

Pressure: 30.15 "Hg (23.68 "Hg at 1901m altitude)

Humidity: 93%

Dew Point: 23 °F

Location of JacksonLocation

Past Weather in Jackson — Graph

°F

Jackson Temperature Yesterday

Maximum temperature yesterday: 46 °F (at 3:51 pm)
Minimum temperature yesterday: 27 °F (at 5:35 am)
Average temperature yesterday: 34 °F

High & Low Weather Summary for the Past Weeks

 TemperatureHumidityPressure
High55 °F (Apr 16, 3:52 pm)100% (Apr 15, 7:51 am)30.29 "Hg (Apr 15, 7:51 am)
Low18 °F (Apr 15, 7:51 am)18% (Apr 16, 2:45 pm)29.58 "Hg (Apr 27, 3:15 am)
Average35 °F79%29.97 "Hg
* Reported Apr 15 5:35 am — Apr 30 5:35 am, Jackson, Weather by CustomWeather, © 2017

Note: Actual official high and low records may vary slightly from our data, if they occured in-between our weather recording intervals... More about our weather records

Advertising

Jackson Weather History for the Previous 24 Hours

Scroll right to see more
 ConditionsComfort  
Time TempWeatherWind HumidityBarometerVisibility
5:35 am
Sun, Apr 30
23 °FClear.3 mph93%30.16 "Hg10 mi
4:55 am25 °FClear.6 mph93%30.16 "Hg10 mi
4:35 am25 °FClear.5 mph86%30.16 "Hg10 mi
4:15 am25 °FClear.7 mph93%30.16 "Hg10 mi
3:55 am25 °FClear.5 mph100%30.16 "Hg10 mi
3:35 am25 °FClear.No wind93%30.16 "Hg10 mi
3:15 am25 °FClear.No wind93%30.16 "Hg10 mi
2:55 am27 °FClear.No wind93%30.16 "Hg10 mi
2:35 am27 °FClear.No wind86%30.16 "Hg10 mi
2:15 am30 °FClear.No wind80%30.17 "Hg10 mi
1:55 am28 °FClear.No wind86%30.17 "Hg10 mi
1:35 am28 °FClear.3 mph86%30.18 "Hg10 mi
1:15 am28 °FClear.No wind86%30.18 "Hg10 mi
12:55 am30 °FClear.3 mph80%30.18 "Hg10 mi
12:35 am28 °FClear.No wind86%30.18 "Hg10 mi
12:15 am28 °FClear.No wind86%30.19 "Hg10 mi
11:55 pm
Sat, Apr 29
30 °FClear.3 mph80%30.19 "Hg10 mi
11:35 pm30 °FClear.5 mph75%30.19 "Hg10 mi
11:15 pm34 °FPassing clouds.No wind60%30.19 "Hg10 mi
10:55 pm36 °FPassing clouds.3 mph56%30.21 "Hg10 mi
10:35 pm37 °FClear.No wind52%30.21 "Hg10 mi
10:15 pm37 °FClear.No wind48%30.20 "Hg10 mi
9:55 pm36 °FClear.5 mph56%30.20 "Hg10 mi
9:35 pm34 °FClear.5 mph60%30.19 "Hg10 mi
9:15 pm34 °FPassing clouds.8 mph60%30.19 "Hg10 mi
8:55 pm36 °FClear.12 mph52%30.18 "Hg10 mi
7:51 pm43 °FQuite cool.10 mph34%30.16 "Hg10 mi
6:52 pm45 °FSunny.9 mph31%30.16 "Hg10 mi
5:52 pm46 °FSunny.10 mph29%30.15 "Hg10 mi
4:51 pm46 °FBroken clouds.12 mph32%30.16 "Hg10 mi
3:51 pm46 °FScattered clouds.No wind32%30.17 "Hg10 mi
2:51 pm45 °FPartly sunny.No wind31%30.18 "Hg10 mi
1:55 pm45 °FScattered clouds.No wind31%30.19 "Hg10 mi
12:51 pm43 °FScattered clouds.7 mph36%30.19 "Hg10 mi
11:55 am39 °FPassing clouds.3 mph39%30.20 "Hg10 mi
10:51 am37 °FSunny.6 mph45%30.20 "Hg10 mi
9:55 am36 °FSunny.8 mph56%30.21 "Hg10 mi
8:51 am34 °FSunny.12 mph60%30.20 "Hg10 mi
7:51 am30 °FSunny.12 mph75%30.20 "Hg10 mi
6:51 am27 °FSunny.13 mph80%30.18 "Hg10 mi
6:35 am27 °FSunny.13 mph80%30.18 "Hg10 mi
6:15 am27 °FClear.14 mph80%30.17 "Hg10 mi
Weather by CustomWeather, © 2017

See weather overviewHow to use our weather pages